THY5687 URKA-LTFO

Flight info

Callsign THY5687
Flight time 0h 57m
Altitude 25000
Route NALU2Y NALUD A277 LAMET B950 KARAT B143 OGMOS N166 TUDEK UR114 FALAZ UN644 ZERGE ZERG1L
Aircraft A321/M-SDE3FGHIRWY/LB1

Departure

Time 2026-05-01 08:41
Airport Anapa Vityazevo Airport (URKA)

Arrival

Time 2026-05-01 09:38
Airport Rize–Artvin Airport (LTFO)
Time Latitude Longitude Altitude Speed Heading
2026-05-01 08:19 45.00174 37.34135 265 ft 0 kts 134°
2026-05-01 08:22 45.00174 37.34134 265 ft 0 kts 134°
2026-05-01 08:34 45.00171 37.34139 162 ft 2 kts 134°
2026-05-01 08:34 45.00156 37.34166 162 ft 5 kts 118°
2026-05-01 08:34 45.00164 37.34214 163 ft 6 kts 52°
2026-05-01 08:35 45.00194 37.34256 163 ft 7 kts 41°
2026-05-01 08:35 45.00233 37.34305 164 ft 8 kts 42°
2026-05-01 08:35 45.00277 37.34362 165 ft 9 kts 44°
2026-05-01 08:35 45.00273 37.34440 166 ft 9 kts 131°
2026-05-01 08:36 45.00218 37.34420 165 ft 10 kts 229°
2026-05-01 08:36 45.00157 37.34343 164 ft 14 kts 219°
2026-05-01 08:36 45.00078 37.34243 162 ft 17 kts 222°
2026-05-01 08:36 44.99986 37.34126 160 ft 19 kts 221°
2026-05-01 08:37 44.99892 37.34007 158 ft 19 kts 222°
2026-05-01 08:37 44.99784 37.33870 156 ft 22 kts 222°
2026-05-01 08:37 44.99676 37.33727 153 ft 19 kts 223°
2026-05-01 08:37 44.99581 37.33606 151 ft 12 kts 217°
2026-05-01 08:38 44.99526 37.33596 150 ft 9 kts 170°
2026-05-01 08:38 44.99457 37.33624 149 ft 12 kts 152°
2026-05-01 08:38 44.99441 37.33722 148 ft 12 kts 53°
2026-05-01 08:38 44.99486 37.33799 149 ft 0 kts 42°
2026-05-01 08:40 44.99498 37.33816 149 ft 11 kts 43°
2026-05-01 08:40 44.99763 37.34163 158 ft 93 kts 41°
2026-05-01 08:40 45.00403 37.35013 308 ft 146 kts 47°
2026-05-01 08:41 45.01138 37.35988 1137 ft 145 kts 42°
2026-05-01 08:41 45.01891 37.36929 2028 ft 144 kts 42°
2026-05-01 08:41 45.02621 37.37866 2368 ft 164 kts 44°
2026-05-01 08:42 45.04574 37.40371 3178 ft 194 kts 43°
2026-05-01 08:42 45.05621 37.41707 3507 ft 212 kts 43°
2026-05-01 08:42 45.06767 37.43172 4001 ft 231 kts 43°
2026-05-01 08:42 45.07977 37.44720 4799 ft 240 kts 44°
2026-05-01 08:43 45.09213 37.46358 5640 ft 246 kts 50°
2026-05-01 08:43 45.09913 37.48554 6431 ft 252 kts 86°
2026-05-01 08:43 45.09533 37.50970 7216 ft 260 kts 121°
2026-05-01 08:43 45.08182 37.52691 7979 ft 270 kts 156°
2026-05-01 08:44 45.06322 37.53069 8807 ft 276 kts 188°
2026-05-01 08:44 45.04448 37.52468 9795 ft 276 kts 200°
2026-05-01 08:44 45.02620 37.51553 10541 ft 286 kts 203°
2026-05-01 08:44 45.00679 37.50533 10818 ft 310 kts 202°
2026-05-01 08:45 44.98569 37.49505 11174 ft 328 kts 200°
2026-05-01 08:45 44.96362 37.48552 11880 ft 334 kts 199°
2026-05-01 08:45 44.94125 37.47686 12681 ft 335 kts 198°
2026-05-01 08:45 44.91851 37.46868 13536 ft 337 kts 197°
2026-05-01 08:46 44.89579 37.46082 14368 ft 337 kts 197°
2026-05-01 08:46 44.87290 37.45300 15142 ft 339 kts 198°
2026-05-01 08:46 44.85027 37.44525 15882 ft 340 kts 198°
2026-05-01 08:46 44.82694 37.43717 16598 ft 341 kts 198°
2026-05-01 08:47 44.80380 37.42908 17291 ft 343 kts 198°
2026-05-01 08:47 44.78062 37.42092 17977 ft 344 kts 198°
2026-05-01 08:47 44.75729 37.41269 18602 ft 346 kts 198°
2026-05-01 08:47 44.73386 37.40445 19158 ft 348 kts 198°
2026-05-01 08:48 44.70968 37.39888 19730 ft 356 kts 189°
2026-05-01 08:48 44.68463 37.39888 20334 ft 362 kts 185°
2026-05-01 08:48 44.65943 37.39949 20944 ft 365 kts 185°
2026-05-01 08:48 44.63393 37.40013 21542 ft 367 kts 185°
2026-05-01 08:49 44.60863 37.40075 22106 ft 370 kts 185°
2026-05-01 08:49 44.58248 37.40137 22631 ft 372 kts 185°
2026-05-01 08:49 44.55685 37.40197 23133 ft 375 kts 185°
2026-05-01 08:49 44.53068 37.40259 23627 ft 378 kts 184°
2026-05-01 08:50 44.50426 37.40779 24024 ft 392 kts 173°
2026-05-01 08:50 44.47835 37.42152 24413 ft 407 kts 160°
2026-05-01 08:50 44.45441 37.44417 24803 ft 424 kts 147°
2026-05-01 08:50 44.43350 37.47426 25016 ft 434 kts 140°
2026-05-01 08:51 44.41325 37.50555 25064 ft 436 kts 140°
2026-05-01 08:51 44.39284 37.53715 25063 ft 437 kts 140°
2026-05-01 08:51 44.37246 37.56864 25061 ft 437 kts 140°
2026-05-01 08:51 44.35202 37.60015 25057 ft 438 kts 140°
2026-05-01 08:52 44.33150 37.63170 25058 ft 438 kts 140°
2026-05-01 08:52 44.31096 37.66316 25055 ft 438 kts 140°
2026-05-01 08:52 44.29032 37.69463 25052 ft 438 kts 140°
2026-05-01 08:52 44.26978 37.72589 25058 ft 439 kts 140°
2026-05-01 08:53 44.24912 37.75733 25050 ft 439 kts 140°
2026-05-01 08:53 44.22844 37.78882 25048 ft 439 kts 140°
2026-05-01 08:53 44.20786 37.82018 25048 ft 440 kts 140°
2026-05-01 08:53 44.18715 37.85162 25041 ft 440 kts 140°
2026-05-01 08:54 44.16640 37.88284 25038 ft 439 kts 140°
2026-05-01 08:54 44.14555 37.91405 25038 ft 439 kts 141°
2026-05-01 08:54 44.12469 37.94516 25035 ft 439 kts 141°
2026-05-01 08:54 44.10386 37.97621 25034 ft 440 kts 141°
2026-05-01 08:55 44.08298 38.00733 25032 ft 440 kts 141°
2026-05-01 08:55 44.06210 38.03839 25025 ft 440 kts 141°
2026-05-01 08:55 44.04121 38.06947 25025 ft 440 kts 141°
2026-05-01 08:55 44.02056 38.10018 25020 ft 440 kts 140°
2026-05-01 08:56 43.99941 38.13160 25024 ft 440 kts 140°
2026-05-01 08:56 43.97877 38.16222 25021 ft 440 kts 140°
2026-05-01 08:56 43.95786 38.19319 25021 ft 440 kts 140°
2026-05-01 08:56 43.93664 38.22456 25020 ft 440 kts 140°
2026-05-01 08:57 43.91595 38.25507 25021 ft 440 kts 140°
2026-05-01 08:57 43.89495 38.28601 25020 ft 440 kts 140°
2026-05-01 08:57 43.87408 38.31697 25026 ft 440 kts 140°
2026-05-01 08:57 43.85321 38.34816 25026 ft 440 kts 140°
2026-05-01 08:58 43.83246 38.37925 25024 ft 440 kts 140°
2026-05-01 08:58 43.81164 38.41033 25022 ft 440 kts 140°
2026-05-01 08:58 43.79088 38.44120 25018 ft 439 kts 140°
2026-05-01 08:58 43.77000 38.47219 25014 ft 439 kts 140°
2026-05-01 08:59 43.74919 38.50303 25019 ft 439 kts 140°
2026-05-01 08:59 43.72831 38.53392 25018 ft 439 kts 140°
2026-05-01 08:59 43.70743 38.56481 25008 ft 439 kts 140°
2026-05-01 08:59 43.68654 38.59566 25012 ft 439 kts 140°
2026-05-01 09:00 43.66572 38.62637 25005 ft 439 kts 140°
2026-05-01 09:00 43.64486 38.65710 25002 ft 438 kts 140°
2026-05-01 09:00 43.62398 38.68787 24998 ft 438 kts 140°
2026-05-01 09:00 43.60319 38.71851 24996 ft 438 kts 140°
2026-05-01 09:01 43.58235 38.74918 24991 ft 438 kts 140°
2026-05-01 09:01 43.56144 38.77988 24991 ft 438 kts 140°
2026-05-01 09:01 43.54056 38.81046 24986 ft 438 kts 140°
2026-05-01 09:01 43.51963 38.84105 24983 ft 439 kts 140°
2026-05-01 09:02 43.49876 38.87156 24984 ft 439 kts 140°
2026-05-01 09:02 43.47779 38.90219 24981 ft 439 kts 140°
2026-05-01 09:02 43.45685 38.93273 24980 ft 439 kts 140°
2026-05-01 09:02 43.43587 38.96331 24982 ft 439 kts 140°
2026-05-01 09:03 43.41489 38.99383 24980 ft 439 kts 140°
2026-05-01 09:03 43.39390 39.02435 24981 ft 439 kts 140°
2026-05-01 09:03 43.37210 39.05338 24972 ft 432 kts 147°
2026-05-01 09:03 43.34798 39.07641 24975 ft 424 kts 157°
2026-05-01 09:04 43.32160 39.09339 24976 ft 415 kts 166°
2026-05-01 09:04 43.29405 39.10405 24975 ft 408 kts 175°
2026-05-01 09:04 43.26619 39.11149 24980 ft 408 kts 175°
2026-05-01 09:04 43.23832 39.11902 24974 ft 409 kts 175°
2026-05-01 09:05 43.21042 39.12666 24976 ft 409 kts 174°
2026-05-01 09:05 43.18247 39.13433 24981 ft 409 kts 174°
2026-05-01 09:05 43.15454 39.14199 24978 ft 410 kts 174°
2026-05-01 09:05 43.12663 39.14966 24980 ft 410 kts 174°
2026-05-01 09:06 43.09861 39.15736 24981 ft 410 kts 174°
2026-05-01 09:06 43.07064 39.16502 24974 ft 410 kts 174°
2026-05-01 09:06 43.04262 39.17264 24972 ft 410 kts 174°
2026-05-01 09:06 43.01468 39.18018 24966 ft 410 kts 174°
2026-05-01 09:07 42.99611 39.18518 24978 ft 410 kts 174°
2026-05-01 09:07 42.95863 39.19532 24971 ft 411 kts 174°
2026-05-01 09:07 42.94006 39.20036 24976 ft 411 kts 174°
2026-05-01 09:07 42.91202 39.20798 24972 ft 411 kts 174°
2026-05-01 09:08 42.87455 39.21814 24969 ft 411 kts 174°
2026-05-01 09:08 42.85597 39.22317 24965 ft 411 kts 174°
2026-05-01 09:08 42.82791 39.23079 24962 ft 411 kts 174°
2026-05-01 09:08 42.79040 39.24097 24967 ft 411 kts 174°
2026-05-01 09:09 42.77181 39.24599 24968 ft 411 kts 174°
2026-05-01 09:09 42.74392 39.25512 24965 ft 416 kts 166°
2026-05-01 09:09 42.70904 39.27935 24964 ft 428 kts 149°
2026-05-01 09:09 42.69383 39.29670 24970 ft 434 kts 141°
2026-05-01 09:10 42.67478 39.32855 24962 ft 444 kts 127°
2026-05-01 09:10 42.66510 39.35362 24963 ft 450 kts 117°
2026-05-01 09:11 42.66231 39.36312 24958 ft 451 kts 115°
2026-05-01 09:12 42.66138 39.36645 24956 ft 450 kts 117°
2026-05-01 09:12 42.64694 39.40370 24841 ft 441 kts 130°
2026-05-01 09:12 42.62693 39.43482 24972 ft 435 kts 143°
2026-05-01 09:13 42.60277 39.45873 24989 ft 427 kts 156°
2026-05-01 09:13 42.57569 39.47396 24992 ft 417 kts 170°
2026-05-01 09:13 42.54741 39.47999 24995 ft 408 kts 183°
2026-05-01 09:13 42.51936 39.47726 24993 ft 401 kts 194°
2026-05-01 09:14 42.49231 39.47101 24989 ft 401 kts 193°
2026-05-01 09:14 42.46474 39.46482 24985 ft 401 kts 193°
2026-05-01 09:14 42.43691 39.45866 24976 ft 401 kts 193°
2026-05-01 09:14 42.40938 39.45262 24980 ft 401 kts 193°
2026-05-01 09:15 42.38187 39.44660 24974 ft 401 kts 193°
2026-05-01 09:15 42.35434 39.44057 24978 ft 401 kts 193°
2026-05-01 09:15 42.32718 39.43462 24976 ft 401 kts 193°
2026-05-01 09:15 42.29959 39.42855 24969 ft 401 kts 193°
2026-05-01 09:16 42.27205 39.42245 24971 ft 402 kts 193°
2026-05-01 09:16 42.24450 39.41635 24971 ft 402 kts 193°
2026-05-01 09:16 42.21688 39.41026 24967 ft 402 kts 193°
2026-05-01 09:17 42.16053 39.41103 24968 ft 413 kts 173°
2026-05-01 09:17 42.13247 39.42017 24962 ft 415 kts 170°
2026-05-01 09:17 42.07648 39.43915 24974 ft 416 kts 171°
2026-05-01 09:18 42.04833 39.44860 24981 ft 416 kts 171°
2026-05-01 09:18 41.99215 39.46741 24863 ft 416 kts 171°
2026-05-01 09:19 41.93599 39.48615 24385 ft 415 kts 170°
2026-05-01 09:19 41.90858 39.49914 24148 ft 420 kts 158°
2026-05-01 09:19 41.88399 39.52055 23915 ft 427 kts 144°
2026-05-01 09:20 41.84882 39.58531 23432 ft 440 kts 115°
2026-05-01 09:20 41.83921 39.66650 22874 ft 445 kts 95°
2026-05-01 09:21 41.83635 39.74917 22330 ft 441 kts 96°
2026-05-01 09:21 41.83483 39.79008 22067 ft 439 kts 96°
2026-05-01 09:21 41.83165 39.87156 21522 ft 435 kts 96°
2026-05-01 09:22 41.82848 39.95210 21016 ft 431 kts 96°
2026-05-01 09:22 41.82285 40.03055 20071 ft 416 kts 110°
2026-05-01 09:23 41.81081 40.06539 19508 ft 400 kts 129°
2026-05-01 09:23 41.77055 40.11014 18507 ft 370 kts 161°
2026-05-01 09:24 41.72192 40.11934 17472 ft 345 kts 186°
2026-05-01 09:24 41.69813 40.11757 16970 ft 339 kts 186°
2026-05-01 09:24 41.65151 40.11426 15983 ft 333 kts 186°
2026-05-01 09:25 41.60555 40.11124 14954 ft 328 kts 183°
2026-05-01 09:25 41.56076 40.12154 13946 ft 329 kts 163°
2026-05-01 09:26 41.54003 40.13464 13423 ft 330 kts 153°
2026-05-01 09:26 41.50105 40.16662 12418 ft 327 kts 152°
2026-05-01 09:26 41.48179 40.18241 11923 ft 324 kts 152°
2026-05-01 09:27 41.44359 40.21362 10950 ft 320 kts 152°
2026-05-01 09:27 41.42468 40.22900 10605 ft 312 kts 152°
2026-05-01 09:27 41.40666 40.24372 10484 ft 296 kts 152°
2026-05-01 09:28 41.38942 40.25781 10228 ft 288 kts 153°
2026-05-01 09:28 41.37255 40.27153 9982 ft 283 kts 153°
2026-05-01 09:28 41.35580 40.28512 9837 ft 282 kts 153°
2026-05-01 09:28 41.33908 40.29866 9710 ft 281 kts 153°
2026-05-01 09:29 41.30593 40.32556 9423 ft 281 kts 152°
2026-05-01 09:29 41.28921 40.33911 8981 ft 281 kts 152°
2026-05-01 09:30 41.25579 40.36617 8058 ft 280 kts 152°
2026-05-01 09:30 41.23922 40.37954 7608 ft 280 kts 152°
2026-05-01 09:30 41.20645 40.40677 6819 ft 277 kts 144°
2026-05-01 09:31 41.19289 40.42500 6391 ft 279 kts 134°
2026-05-01 09:31 41.18032 40.44456 5954 ft 278 kts 133°
2026-05-01 09:31 41.15512 40.48351 5080 ft 277 kts 133°
2026-05-01 09:32 41.14249 40.50295 4654 ft 277 kts 133°
2026-05-01 09:32 41.11837 40.54030 4359 ft 254 kts 130°
2026-05-01 09:32 41.11061 40.56056 4250 ft 244 kts 102°
2026-05-01 09:33 41.11069 40.58284 3820 ft 248 kts 74°
2026-05-01 09:33 41.11626 40.60421 3566 ft 242 kts 70°
2026-05-01 09:33 41.12704 40.64529 2978 ft 229 kts 70°
2026-05-01 09:34 41.13216 40.66497 2677 ft 223 kts 71°
2026-05-01 09:34 41.13712 40.68407 2388 ft 213 kts 71°
2026-05-01 09:34 41.14622 40.71909 1859 ft 185 kts 71°
2026-05-01 09:35 41.15024 40.73458 1612 ft 172 kts 70°
2026-05-01 09:35 41.15744 40.76238 1171 ft 147 kts 70°
2026-05-01 09:35 41.15882 40.76772 1084 ft 143 kts 70°
2026-05-01 09:36 41.16193 40.77973 886 ft 137 kts 69°
2026-05-01 09:36 41.16499 40.79152 689 ft 133 kts 69°
2026-05-01 09:36 41.16671 40.79819 597 ft 132 kts 68°
2026-05-01 09:36 41.16968 40.80967 411 ft 131 kts 67°
2026-05-01 09:37 41.17263 40.82107 250 ft 130 kts 69°
2026-05-01 09:37 41.17828 40.84296 30 ft 109 kts 70°
2026-05-01 09:37 41.18022 40.85026 29 ft 59 kts 70°
2026-05-01 09:38 41.18175 40.85528 27 ft 12 kts 124°
2026-05-01 09:38 41.18141 40.85504 27 ft 6 kts 252°
2026-05-01 09:38 41.18116 40.85406 27 ft 21 kts 251°
2026-05-01 09:39 41.17988 40.84911 25 ft 30 kts 252°
2026-05-01 09:39 41.17925 40.84641 26 ft 29 kts 252°
2026-05-01 09:39 41.17849 40.84441 24 ft 17 kts 204°
2026-05-01 09:40 41.17739 40.84456 27 ft 15 kts 161°
2026-05-01 09:40 41.17602 40.84472 29 ft 9 kts 238°
2026-05-01 09:40 41.17573 40.84397 29 ft 0 kts 218°
2026-05-01 09:41 41.17565 40.84392 28 ft 3 kts 207°
2026-05-01 09:41 41.17512 40.84410 28 ft 6 kts 162°
2026-05-01 09:41 41.17511 40.84410 28 ft 0 kts 162°